Weather in Indore

India     22˚43′23″N   75˚51′42″E
temp.,
°C
wind,
m/s
gust,
m/s
humid.,
%
clouds,
%
prec.,
mm/h
press.,
hPa
HPBL,
m
3 december, thu
thu323:30+18˚e124340 0.0 101423
02:30+17˚ne124622 0.0 101423
05:30+15˚ene124643 0.0 101423
08:30+20˚e223579 0.0 101691
11:30+27˚ese332040 0.0 1015868
14:30+29˚ese32170 0.0 10121567
17:30+24˚sse34290 0.0 101231
20:30+20˚se34300 0.0 101428
4 december, fri
fri423:30+20˚sse23310 0.0 101423
02:30+17˚ene12350 0.0 101223
05:30+16˚ene11360 0.0 101223
08:30+21˚se12300 0.0 101476
11:30+28˚sse22190 0.0 1014992
14:30+30˚se22170 0.0 10101979
17:30+24˚sse45280 0.0 101058
20:30+20˚s23290 0.0 101323
5 december, sat
sat523:30+20˚s22290 0.0 101323
02:30+18˚ssw11320 0.0 101223
05:30+17˚se12320 0.0 101223
08:30+22˚se22300 0.0 101577
11:30+28˚sse22210 0.0 10141047
14:30+30˚se21180 0.0 10101911
17:30+24˚sse34290 0.0 101052
20:30+21˚sse23300 0.0 101323
6 december, sun
sun623:30+20˚sse22310 0.0 101423
02:30+18˚se22340 0.0 101323
05:30+18˚se12370 0.0 101423
08:30+23˚s11310 0.0 101740
11:30+29˚s23210 0.0 10161412
14:30+30˚sse32190 0.0 10132121
17:30+25˚sse34280 0.0 101350
20:30+21˚sse23300 0.0 101523
7 december, mon
mon723:30+20˚sse11330 0.0 101523
02:30+18˚ese01370 0.0 101523
05:30+17˚ese11390 0.0 101523
08:30+22˚se11340 0.0 101852
11:30+29˚ssw21220 0.0 10171353
14:30+31˚nne01180 0.0 10142135
17:30+25˚ese122916 0.0 101426
20:30+21˚s22350 0.0 101623